Wetbulb
60.26 60.35 60.70 62.26 63.19 64.50 64.09 63.31 63.37 62.54 62.81 62.49 61.95 61.76 61.20 61.21 61.95 65.06 63.80 62.29 65.47 67.71 67.89 67.50 68.20 68.70 68.36 67.32 66.37 65.95 65.83 65.32 64.76 64.97 65.18 65.78 65.74 65.73 65.70 65.89 66.22 66.61 66.93
59.73 59.76 60.27 61.00 62.04 62.86 63.09 62.82 61.70 61.74 60.54 59.43 57.80 58.41 58.72 59.49 60.10 60.70 64.17 62.03 62.58 64.64 67.28 67.54 67.33 67.62 67.80 66.85 66.62 66.33 66.32 66.19 65.60 64.68 64.55 64.82 65.07 65.15 65.32 65.61 65.85 65.90 65.99
59.16 58.73 58.94 59.20 60.81 61.77 61.34 61.03 61.24 59.76 59.82 57.59 56.02 56.78 56.05 54.59 56.07 58.42 59.46 62.52 62.61 61.35 63.17 66.26 66.78 66.86 66.87 66.77 66.76 66.31 65.66 65.65 65.77 65.60 65.12 64.78 64.33 64.28 65.18 65.26 65.69 65.31 65.54
58.63 58.42 58.30 58.75 60.09 60.84 60.92 60.00 59.58 58.98 58.25 56.47 54.73 53.64 54.61 53.99 52.49 53.27 56.14 58.07 60.62 62.29 61.28 61.02 62.86 65.41 65.98 66.57 66.89 66.65 66.69 66.35 66.18 65.71 65.27 64.96 64.64 64.90 65.26 65.25 64.87 64.72 64.68
58.00 57.96 57.74 58.16 59.60 59.64 58.82 59.37 58.60 58.08 57.06 55.70 52.95 51.92 51.23 52.73 52.52 52.51 52.50 54.56 56.49 59.09 61.79 58.52 59.34 59.69 63.61 66.24 66.54 66.35 66.00 65.82 65.64 65.29 64.98 64.90 65.32 65.34 65.44 65.13 64.93 65.48 65.99
56.99 57.10 57.29 57.34 58.28 58.43 57.71 58.23 57.04 57.48 56.80 55.23 51.42 49.63 49.22 49.75 50.80 52.21 52.28 53.10 54.59 56.81 58.57 59.30 58.45 59.41 59.36 63.95 65.48 65.39 65.20 65.30 64.49 63.74 63.30 63.05 63.07 63.50 64.02 64.32 64.35 64.21 64.63
56.14 56.27 56.48 56.27 56.75 57.30 57.09 57.76 56.95 55.69 53.84 53.27 50.53 49.16 48.99 48.34 48.83 50.26 52.10 53.68 53.81 54.46 55.64 58.00 57.18 55.49 57.09 60.31 64.25 64.78 64.66 64.25 63.32 62.48 61.82 62.13 61.69 61.27 61.93 62.72 62.77 62.69 63.51
55.22 54.98 55.24 55.09 55.33 55.95 56.68 55.62 54.50 53.12 52.15 52.41 51.73 51.77 48.98 49.91 48.64 48.90 50.68 52.38 53.40 53.63 53.92 54.79 56.93 56.21 55.78 56.95 58.90 63.20 63.91 63.45 62.78 61.89 60.98 60.99 60.93 60.16 59.91 60.59 61.17 61.84 62.19
53.99 53.95 53.86 54.17 54.42 55.11 55.82 54.87 53.96 52.12 49.81 50.84 51.33 51.57 47.55 46.12 51.78 50.23 49.24 50.98 51.04 51.76 52.81 53.08 54.21 56.09 57.05 56.21 57.92 60.16 61.39 62.47 62.04 61.35 60.25 59.56 60.16 60.31 60.07 60.35 60.11 62.68 62.52
52.53 52.70 52.69 52.84 53.10 53.99 54.34 55.11 54.62 53.71 52.86 49.06 48.85 49.31 52.20 49.01 47.59 46.66 49.78 50.30 50.48 49.92 51.08 51.32 52.29 53.88 53.95 55.29 53.24 54.34 58.54 60.64 61.32 60.76 59.15 58.40 57.87 60.27 60.59 60.62 61.78 62.22 62.37
50.95 50.88 50.81 51.14 51.18 52.47 53.39 54.30 54.61 53.38 53.73 52.65 50.21 50.17 50.37 50.69 48.81 46.40 46.22 46.32 48.37 48.56 49.66 49.98 50.75 52.31 52.11 52.63 53.26 53.58 55.75 59.52 59.54 58.49 57.61 57.00 56.12 58.50 61.21 61.69 61.24 61.14 60.76
47.10 49.32 48.95 49.07 50.01 50.48 51.11 52.27 53.84 52.91 52.59 53.32 52.37 51.60 50.79 49.39 48.32 45.87 44.83 47.04 45.74 46.85 47.86 48.09 48.04 49.38 52.05 51.85 52.77 51.70 53.12 55.83 58.17 57.68 57.28 55.18 55.20 57.52 58.98 60.78 60.34 60.26 59.53
35.32 38.24 41.72 46.42 47.91 48.92 49.25 50.00 51.09 52.28 51.66 52.12 52.14 51.42 51.40 51.18 51.04 49.39 47.60 46.94 45.28 46.16 46.12 47.25 46.94 47.35 49.03 51.42 51.39 49.34 51.09 53.54 57.24 56.32 56.43 54.51 54.77 54.72 56.47 60.36 59.97 58.96 57.82
30.44 32.76 34.37 39.24 43.34 46.79 47.29 47.59 48.03 49.53 51.49 50.69 51.71 50.53 50.72 51.26 51.12 49.72 48.17 47.24 43.96 44.91 44.65 45.15 46.30 46.04 46.01 47.82 50.76 48.10 50.07 51.30 53.92 55.86 55.37 54.12 53.03 54.37 56.03 59.54 58.48 57.11 55.51
28.43 29.11 30.61 32.22 36.77 38.95 44.60 46.01 45.89 46.34 47.90 49.66 49.50 50.59 49.81 50.18 50.74 49.90 49.05 48.44 46.23 42.43 43.19 45.77 44.01 45.72 45.27 44.94 47.39 47.41 49.00 49.84 51.73 54.96 54.04 52.86 50.56 54.16 57.29 57.39 55.84 54.36 53.14
26.20 27.05 28.03 29.61 31.38 35.41 37.65 39.08 44.44 45.47 45.44 46.33 47.85 48.97 48.75 49.43 48.30 48.83 48.36 47.94 47.58 45.80 43.28 48.10 45.65 44.69 44.77 43.84 45.15 45.99 48.48 47.52 49.76 53.73 52.44 50.68 49.44 51.30 54.39 54.55 53.51 52.55 51.72
25.14 25.52 26.43 27.74 29.03 30.40 34.04 36.27 37.53 41.41 43.71 44.21 45.01 45.51 46.96 48.11 47.68 47.33 46.30 46.55 46.58 46.43 43.82 46.71 46.91 45.31 43.22 42.30 42.26 43.11 45.61 45.60 47.67 51.14 50.58 48.97 48.52 49.06 50.93 52.07 51.47 50.64 50.06
24.89 25.05 25.25 25.84 27.33 28.44 30.20 33.16 34.83 35.59 35.63 39.48 42.44 43.01 43.22 44.15 45.90 46.66 45.33 44.05 44.34 45.81 44.76 43.12 44.02 42.27 41.66 42.40 41.11 40.47 41.79 43.85 46.01 48.83 49.35 47.88 46.82 48.11 48.43 50.21 49.89 49.66 48.98
22.99 23.53 23.85 23.88 25.08 26.50 27.96 30.25 33.42 33.72 35.34 35.33 36.21 38.96 41.21 41.68 41.45 42.46 42.89 43.12 43.42 43.79 43.84 42.34 41.93 41.61 39.99 41.10 40.04 39.96 39.84 38.59 41.63 45.78 48.49 47.29 46.37 45.87 47.44 48.02 48.13 48.30 47.77
20.35 21.27 22.34 22.96 23.47 24.77 26.85 28.87 31.18 31.16 32.26 34.39 35.61 35.89 35.95 37.34 39.26 40.23 40.32 40.58 41.08 40.78 40.68 39.65 39.53 37.74 38.08 38.31 38.83 37.17 36.67 36.83 36.31 39.29 43.21 45.82 45.68 45.35 45.21 46.33 47.07 46.45 46.26
18.91 19.80 20.11 20.96 22.52 23.84 25.12 28.23 29.92 30.37 29.86 30.42 32.43 33.22 34.70 35.98 37.05 37.18 36.18 38.55 38.83 38.61 38.32 37.49 36.87 36.81 35.87 34.17 34.88 36.91 35.68 35.50 35.99 35.56 34.69 38.54 40.61 42.32 42.12 44.23 43.56 44.26 44.60
16.73 18.34 18.27 18.62 19.40 23.08 26.39 29.36 30.22 28.27 28.25 28.61 29.05 30.25 32.20 34.18 34.50 36.90 38.41 37.85 36.94 35.86 35.63 36.01 36.27 35.83 35.98 36.10 36.07 35.78 35.09 33.48 31.21 36.90 34.18 34.22 37.52 38.10 40.70 40.56 43.14 42.99 42.92
16.57 16.61 17.38 17.96 18.09 20.64 24.30 26.87 28.85 27.29 25.85 26.62 27.64 28.64 29.19 31.75 33.75 32.23 34.55 36.22 36.99 38.74 37.62 35.60 34.16 35.18 35.10 36.18 36.10 34.93 34.77 34.52 33.26 34.79 34.53 32.11 34.71 34.62 39.02 41.02 43.59 43.56 42.94
15.45 16.16 16.47 17.52 18.08 19.72 22.97 24.46 25.95 24.23 24.55 25.82 27.12 27.68 27.97 28.55 30.14 32.02 31.86 31.76 31.99 32.18 32.84 35.78 34.85 34.77 35.89 36.80 36.30 35.82 35.10 34.52 35.15 34.03 34.18 30.67 34.65 32.96 35.63 37.88 41.72 43.24 43.31
14.65 15.03 16.73 16.96 16.89 17.34 21.73 23.06 22.74 21.62 22.44 23.52 25.98 27.53 27.08 27.90 30.49 32.85 31.24 30.83 31.43 32.00 35.21 36.51 36.70 36.73 38.37 39.18 38.28 34.86 31.89 31.36 31.28 31.11 33.40 33.21 33.87 33.31 33.72 34.96 36.51 40.48 41.83
14.24 15.87 15.69 16.46 17.74 15.94 19.62 21.59 22.15 21.24 19.77 21.44 23.54 25.33 28.25 28.62 31.23 32.39 31.02 29.81 28.89 31.03 31.94 31.74 31.83 33.58 35.69 36.67 38.86 34.49 33.31 30.69 31.16 30.77 32.80 32.01 31.53 31.86 29.13 33.28 33.15 33.50 36.84
MSLP
1017.70 1017.70 1017.70 1017.76 1017.91 1018.17 1018.67 1018.83 1019.17 1019.62 1019.82 1020.18 1020.41 1020.46 1020.58 1020.58 1020.59 1020.09 1020.79 1020.69 1020.34 1020.13 1020.04 1020.04 1020.21 1020.37 1020.53 1020.87 1021.06 1021.25 1021.28 1021.38 1021.58 1021.61 1021.73 1021.77 1021.80 1021.88 1021.82 1021.74 1021.64 1021.56 1021.40
1017.96 1018.11 1018.05 1018.08 1018.02 1018.22 1018.55 1019.13 1019.45 1019.75 1020.14 1020.72 1021.08 1021.11 1021.13 1021.17 1021.00 1020.87 1020.60 1021.13 1021.06 1020.85 1020.47 1020.30 1020.33 1020.53 1020.74 1020.96 1021.09 1021.27 1021.41 1021.47 1021.65 1021.82 1021.87 1021.89 1021.97 1022.00 1021.97 1021.89 1021.85 1021.77 1021.58
1018.25 1018.36 1018.41 1018.41 1018.36 1018.38 1018.87 1019.24 1019.62 1020.10 1020.46 1021.07 1021.36 1021.38 1021.54 1021.79 1021.54 1021.27 1021.33 1020.95 1021.07 1021.38 1021.32 1020.96 1020.73 1020.77 1020.85 1020.97 1021.06 1021.27 1021.41 1021.57 1021.71 1021.81 1021.96 1022.02 1022.07 1022.06 1022.03 1021.95 1021.94 1021.85 1021.67
1018.35 1018.51 1018.54 1018.52 1018.49 1018.56 1018.95 1018.92 1019.69 1020.25 1020.78 1021.29 1021.58 1021.78 1021.72 1021.84 1021.97 1021.91 1021.78 1021.54 1021.29 1021.25 1021.64 1021.75 1021.46 1021.22 1021.01 1021.07 1021.16 1021.33 1021.61 1021.67 1021.78 1021.95 1022.06 1022.09 1022.11 1022.12 1022.13 1022.11 1022.05 1021.95 1021.85
1018.51 1018.57 1018.61 1018.60 1018.88 1018.90 1019.17 1019.28 1019.69 1020.20 1020.64 1021.34 1021.80 1022.06 1022.23 1022.05 1022.12 1022.12 1022.16 1021.94 1021.91 1021.71 1021.47 1021.88 1021.74 1021.68 1021.42 1021.23 1021.30 1021.46 1021.76 1021.92 1022.09 1022.25 1022.32 1022.37 1022.37 1022.30 1022.37 1022.25 1022.19 1022.13 1022.04
1018.63 1018.74 1018.68 1018.73 1018.99 1018.99 1019.42 1019.51 1019.69 1020.09 1020.47 1021.23 1021.86 1022.18 1022.37 1022.49 1022.32 1022.18 1022.13 1022.04 1022.11 1021.93 1021.83 1021.84 1021.90 1021.85 1021.90 1021.60 1021.53 1021.58 1021.86 1022.11 1022.35 1022.59 1022.71 1022.65 1022.59 1022.65 1022.59 1022.44 1022.36 1022.45 1022.33
1018.67 1018.84 1018.78 1018.90 1019.10 1019.02 1019.43 1019.64 1019.94 1020.25 1020.86 1021.47 1021.95 1022.16 1022.29 1022.34 1022.32 1022.29 1022.13 1021.98 1021.95 1022.01 1021.94 1021.95 1022.14 1022.24 1022.10 1021.90 1021.76 1021.82 1021.96 1022.18 1022.53 1022.83 1022.91 1022.81 1022.91 1022.99 1022.94 1022.79 1022.73 1022.70 1022.58
1018.90 1019.00 1018.94 1018.98 1019.04 1019.17 1019.21 1019.89 1020.36 1020.61 1021.10 1021.50 1021.37 1021.50 1021.75 1021.89 1021.95 1022.01 1022.03 1021.83 1021.76 1021.99 1022.10 1022.19 1022.02 1022.21 1022.20 1022.19 1022.04 1021.89 1021.94 1022.21 1022.61 1022.93 1022.97 1022.90 1023.09 1023.13 1023.04 1023.00 1022.91 1022.86 1022.87
1019.24 1019.33 1019.26 1019.22 1019.14 1019.21 1019.28 1019.84 1020.37 1020.67 1020.98 1021.36 1021.36 1021.26 1021.39 1021.18 1020.45 1021.29 1021.59 1021.52 1021.69 1021.94 1022.01 1022.21 1022.19 1022.09 1022.07 1022.21 1022.10 1022.04 1022.01 1022.08 1022.57 1022.93 1023.08 1023.15 1023.24 1023.15 1023.06 1023.04 1022.95 1022.90 1023.05
1019.53 1019.59 1019.60 1019.49 1019.41 1019.33 1019.44 1019.46 1020.02 1020.44 1020.62 1021.00 1021.57 1021.34 1021.09 1021.27 1020.97 1020.81 1021.01 1021.23 1021.40 1021.66 1021.79 1022.02 1022.02 1022.08 1022.23 1022.23 1022.42 1022.36 1022.14 1022.13 1022.42 1022.79 1023.05 1023.11 1023.29 1023.24 1022.98 1022.97 1023.01 1023.20 1023.32
1020.06 1020.05 1020.04 1019.82 1019.72 1019.58 1019.53 1019.51 1019.55 1020.06 1020.35 1020.50 1020.74 1020.87 1020.98 1021.11 1021.32 1021.24 1020.42 1020.98 1021.32 1021.45 1021.45 1021.59 1021.77 1021.85 1022.16 1022.28 1022.37 1022.44 1022.39 1022.24 1022.49 1022.78 1022.99 1023.06 1023.32 1023.36 1023.14 1023.14 1023.30 1023.58 1023.76
1021.36 1020.63 1020.59 1020.44 1020.11 1019.84 1019.69 1019.56 1019.53 1019.65 1020.02 1020.09 1020.28 1020.40 1020.29 1020.58 1020.71 1020.76 1020.50 1020.08 1020.67 1020.88 1021.21 1021.43 1021.59 1021.72 1021.78 1022.10 1022.17 1022.36 1022.40 1022.40 1022.48 1022.72 1023.04 1023.26 1023.38 1023.31 1023.12 1023.24 1023.46 1023.75 1024.22
1024.25 1023.52 1022.58 1021.19 1020.50 1020.16 1019.93 1019.71 1019.59 1019.55 1019.77 1019.86 1019.87 1019.97 1019.89 1020.02 1020.10 1019.91 1019.92 1019.84 1020.18 1020.49 1020.94 1021.16 1021.37 1021.56 1021.69 1021.83 1022.01 1022.28 1022.40 1022.39 1022.37 1022.68 1022.96 1023.25 1023.36 1023.35 1023.26 1023.06 1023.42 1023.89 1024.53
1026.18 1025.46 1024.55 1023.14 1021.66 1020.51 1020.14 1019.89 1019.72 1019.59 1019.47 1019.65 1019.66 1019.70 1019.68 1019.65 1019.76 1019.78 1019.90 1019.88 1020.17 1020.15 1020.53 1020.51 1020.86 1021.19 1021.49 1021.63 1021.69 1022.11 1022.16 1022.36 1022.43 1022.60 1022.85 1023.07 1023.33 1023.24 1023.22 1023.14 1023.51 1024.02 1024.77
1026.98 1026.31 1025.52 1024.53 1023.37 1022.21 1020.61 1019.97 1019.78 1019.51 1019.36 1019.27 1019.32 1019.40 1019.46 1019.46 1019.40 1019.54 1019.70 1019.72 1019.71 1019.88 1019.82 1019.80 1020.39 1020.65 1021.08 1021.40 1021.56 1021.85 1022.03 1022.17 1022.32 1022.42 1022.72 1023.03 1023.34 1023.23 1023.06 1023.29 1023.74 1024.03 1024.86
1027.67 1026.89 1026.10 1025.29 1024.42 1023.46 1022.35 1021.31 1019.99 1019.53 1019.11 1018.85 1018.84 1018.90 1019.06 1019.18 1019.28 1019.21 1019.36 1019.48 1019.48 1019.55 1019.47 1018.95 1019.58 1020.12 1020.64 1021.06 1021.38 1021.65 1021.70 1021.89 1022.14 1022.19 1022.50 1022.88 1023.33 1023.39 1023.38 1023.76 1024.08 1024.13 1024.69
1028.20 1027.49 1026.84 1026.02 1025.18 1024.39 1023.58 1022.49 1021.40 1020.15 1019.24 1018.81 1018.50 1018.41 1018.37 1018.65 1018.82 1019.04 1019.13 1019.12 1019.23 1019.37 1019.22 1019.07 1019.08 1019.61 1020.37 1020.81 1021.11 1021.55 1021.47 1021.74 1021.95 1022.00 1022.27 1022.67 1023.21 1023.51 1023.63 1023.93 1024.23 1024.31 1024.59
1028.50 1028.00 1027.35 1026.65 1025.87 1025.12 1024.38 1023.40 1022.52 1021.69 1020.82 1019.51 1018.74 1018.40 1018.10 1018.18 1018.10 1018.34 1018.68 1018.81 1018.91 1018.88 1018.98 1018.98 1019.16 1019.58 1019.99 1020.37 1020.75 1021.38 1021.34 1021.48 1021.63 1021.92 1022.13 1022.58 1022.96 1023.34 1023.61 1023.88 1024.15 1024.39 1024.70
1029.19 1028.43 1027.73 1027.06 1026.43 1025.74 1024.94 1024.04 1023.16 1022.40 1021.58 1020.94 1020.13 1019.10 1018.42 1018.20 1018.00 1017.89 1017.93 1017.91 1018.11 1018.30 1018.41 1018.63 1018.85 1019.03 1019.74 1020.03 1020.47 1020.80 1021.09 1021.40 1021.39 1021.50 1021.91 1022.40 1022.74 1023.08 1023.38 1023.65 1023.88 1024.21 1024.61
1029.60 1028.96 1028.28 1027.50 1026.79 1026.12 1025.38 1024.55 1023.60 1022.84 1022.19 1021.51 1020.88 1020.33 1019.74 1019.05 1018.34 1018.07 1018.02 1017.80 1017.79 1017.91 1018.13 1018.36 1018.58 1018.91 1019.29 1019.69 1020.11 1020.49 1020.85 1021.02 1021.21 1021.37 1021.77 1022.01 1022.44 1022.79 1023.05 1023.33 1023.59 1023.95 1024.42
1029.70 1029.03 1028.44 1027.86 1027.09 1026.24 1025.57 1024.66 1023.95 1023.22 1022.62 1021.99 1021.29 1020.78 1020.35 1019.92 1019.48 1019.08 1018.90 1018.17 1018.02 1017.91 1017.90 1018.02 1018.33 1018.51 1018.90 1019.37 1019.56 1019.78 1020.21 1020.62 1020.89 1021.10 1021.56 1021.75 1021.99 1022.37 1022.75 1022.96 1023.30 1023.86 1024.36
1029.63 1028.89 1028.32 1027.75 1027.15 1026.45 1025.56 1024.62 1024.02 1023.56 1023.03 1022.47 1021.90 1021.17 1020.65 1020.11 1019.65 1019.31 1019.12 1019.01 1018.83 1018.50 1018.12 1017.87 1017.89 1017.94 1018.13 1018.56 1019.14 1019.35 1019.75 1020.23 1020.76 1020.45 1020.86 1020.98 1021.25 1021.79 1022.13 1022.49 1022.86 1023.43 1023.88
1029.43 1028.72 1028.10 1027.54 1026.93 1026.33 1025.64 1024.66 1024.07 1023.64 1023.27 1022.71 1022.19 1021.49 1020.98 1020.42 1019.81 1019.29 1018.94 1018.93 1018.89 1018.82 1018.65 1018.40 1018.07 1017.66 1017.79 1017.94 1018.46 1018.94 1019.23 1019.35 1019.43 1019.68 1020.28 1020.64 1020.83 1021.21 1021.40 1021.74 1022.26 1022.78 1023.28
1029.27 1028.57 1027.92 1027.27 1026.61 1026.07 1025.36 1024.72 1023.98 1023.67 1023.24 1022.60 1022.05 1021.49 1021.06 1020.52 1019.97 1019.36 1018.96 1018.59 1018.54 1018.59 1018.66 1018.55 1018.42 1018.15 1017.93 1017.98 1018.32 1018.59 1018.98 1019.33 1019.54 1020.04 1020.22 1020.48 1020.48 1020.99 1021.30 1021.34 1021.80 1022.27 1022.63
1029.06 1028.40 1027.64 1026.99 1026.43 1025.89 1025.23 1024.51 1023.93 1023.42 1022.73 1022.15 1021.72 1021.21 1020.83 1020.22 1019.69 1019.18 1018.81 1018.44 1018.23 1018.06 1018.07 1018.04 1018.06 1018.08 1017.82 1017.90 1018.17 1018.64 1018.80 1019.40 1019.49 1019.67 1020.16 1020.36 1020.27 1020.74 1020.92 1021.10 1021.61 1021.82 1022.18
1028.84 1028.15 1027.43 1026.86 1026.31 1025.64 1025.20 1024.39 1023.67 1023.05 1022.28 1021.67 1021.10 1020.52 1020.23 1019.78 1019.18 1018.74 1018.40 1018.23 1017.89 1017.78 1017.77 1017.68 1017.84 1017.85 1017.47 1017.48 1017.67 1018.07 1018.40 1018.57 1018.95 1019.15 1019.19 1019.88 1020.13 1020.52 1021.01 1020.93 1021.18 1021.46 1021.86
Wind_Speed
3 3 3 3 5 2 3 3 5 3 4 5 5 4 5 6 5 4 5 13 15 12 6 3 5 11 12 11 10 8 8 8 8 8 8 8 8 8 8 8 9 9 9
2 2 3 4 4 5 4 4 3 3 5 4 5 5 5 5 4 5 3 6 13 14 12 7 5 6 9 9 10 7 7 7 7 8 8 8 7 6 7 8 8 9 9
3 3 3 4 5 4 3 4 6 4 4 4 5 4 4 4 5 4 3 3 6 11 13 12 7 5 7 8 9 8 8 8 8 8 8 6 5 4 5 7 8 9 9
3 3 3 4 4 4 4 5 6 3 5 3 3 3 2 3 4 5 3 3 3 2 8 9 12 11 3 6 10 12 13 13 11 10 10 8 4 5 6 6 8 7 7
4 4 3 3 3 4 4 3 3 5 4 4 3 3 2 2 2 2 2 3 3 2 1 6 8 13 12 7 11 13 13 14 14 14 13 12 13 12 11 10 10 10 10
5 5 3 3 4 4 4 2 3 2 4 5 4 3 2 1 2 1 0 0 0 1 1 2 3 4 10 6 8 12 13 15 14 12 11 10 11 10 10 11 11 10 11
4 5 4 4 4 5 4 5 0 3 3 5 4 2 1 2 2 2 2 2 2 1 0 1 1 1 3 7 2 10 13 13 12 10 10 11 10 8 8 9 9 9 10
3 4 4 4 5 5 4 4 3 2 2 5 2 1 3 4 5 5 4 3 3 1 2 2 1 3 2 1 4 8 12 14 12 10 10 9 7 6 6 7 7 7 5
3 4 4 4 4 5 5 7 7 6 4 4 4 3 3 5 1 5 7 4 4 4 3 3 3 3 3 3 2 3 8 13 12 10 9 8 6 3 4 5 6 8 5
4 4 4 5 5 4 6 5 6 6 4 5 2 4 3 2 2 2 3 5 5 6 6 4 4 4 3 2 2 3 7 10 13 10 7 6 4 5 3 6 8 12 11
5 6 5 5 5 4 5 6 4 5 6 3 4 3 6 5 4 4 2 4 5 6 5 5 5 4 5 3 2 2 0 9 10 7 5 5 1 4 6 9 11 10 9
12 9 7 7 6 6 6 6 7 6 5 6 4 6 6 7 7 6 6 3 6 7 5 4 4 4 4 4 5 4 4 4 10 9 7 5 4 5 7 8 9 12 11
11 15 17 12 7 6 6 6 7 8 6 6 6 5 5 7 7 4 5 1 3 3 4 5 5 4 4 4 5 7 8 5 9 11 9 6 6 1 4 11 13 13 10
10 14 15 15 17 10 8 7 6 7 8 8 10 5 4 7 7 5 4 3 3 3 4 3 5 6 5 4 5 10 4 7 7 13 11 9 3 2 5 11 14 14 10
11 13 14 15 16 17 14 9 7 8 8 8 8 9 7 6 6 6 6 5 4 4 6 6 4 7 5 4 5 5 6 9 9 12 12 9 3 1 7 14 15 16 11
13 13 14 14 14 15 15 16 9 9 9 8 7 10 10 8 6 5 6 6 5 5 6 1 4 4 7 6 6 7 8 9 8 12 13 11 6 1 7 11 11 14 13
13 13 13 13 13 13 14 14 15 14 11 10 10 10 11 11 9 8 5 5 7 7 8 6 2 6 7 6 5 6 5 4 5 10 15 13 10 8 6 9 11 13 13
12 11 12 12 12 13 13 12 11 13 14 13 10 11 11 8 11 11 9 10 9 8 8 11 4 4 5 8 7 7 6 6 5 10 14 14 12 11 10 11 10 11 12
13 13 12 12 12 12 12 12 10 10 10 11 13 12 10 10 10 8 9 8 8 8 8 7 7 4 3 5 6 7 7 4 4 7 16 15 14 13 13 12 12 11 11
12 12 11 11 11 11 12 13 13 9 10 8 8 9 11 11 9 7 8 9 8 8 8 6 6 4 4 4 5 7 7 5 6 5 6 9 14 15 15 14 13 11 12
10 10 11 11 10 9 7 12 12 10 10 10 8 6 6 9 14 12 7 5 7 7 7 7 7 4 6 4 9 7 7 6 6 4 4 6 5 7 8 13 9 11 12
11 10 10 10 11 8 17 20 17 10 10 10 10 9 7 9 8 11 14 14 9 3 5 6 7 8 9 8 7 7 8 6 5 7 8 8 7 6 7 7 14 17 18
12 11 10 10 11 10 20 19 20 10 9 9 9 8 8 7 9 5 8 12 12 15 13 4 3 3 5 5 6 7 7 7 4 4 8 7 5 7 6 8 17 19 20
12 11 11 12 11 9 19 20 21 10 10 10 9 9 8 9 8 9 6 6 6 6 6 6 8 9 6 4 2 3 3 2 2 2 5 5 5 6 5 4 14 17 20
12 12 12 12 12 12 21 21 18 11 11 11 9 8 8 9 12 15 8 7 7 7 7 13 13 11 14 16 11 5 5 5 5 4 5 3 4 5 6 8 9 20 21
14 12 14 13 16 14 20 22 18 9 11 9 11 9 14 13 18 17 10 7 7 5 5 4 3 6 8 10 16 9 6 6 5 4 6 7 4 4 2 3 6 6 8
Wind_Direction
227 210 236 201 176 159 155 145 128 122 108 87 76 69 75 58 20 63 80 36 37 39 63 105 143 153 133 130 122 120 117 120 120 112 111 104 95 81 64 50 40 32 21
222 223 215 217 224 192 164 158 123 112 100 89 77 69 63 68 64 54 62 73 50 38 35 75 105 156 139 135 123 123 125 126 134 131 120 112 102 82 67 54 42 35 26
206 215 211 219 218 212 140 125 126 86 107 104 85 77 83 45 21 44 27 16 103 61 42 35 59 134 148 148 134 125 120 121 126 134 133 124 117 100 78 66 61 43 33
213 211 202 219 217 204 210 210 145 160 143 134 121 60 47 67 53 17 43 20 26 39 79 44 43 34 152 165 143 128 109 100 104 116 116 108 108 106 101 82 65 54 45
211 232 223 214 186 199 224 220 163 160 172 150 136 100 49 28 32 67 17 56 30 356 69 67 44 37 21 153 143 127 118 107 99 96 92 85 77 83 75 77 61 51 53
213 230 227 213 213 188 226 218 224 167 162 154 142 115 67 37 339 338 65 118 163 20 10 67 17 35 28 29 146 136 130 117 104 100 92 82 70 60 56 61 63 49 38
211 220 222 215 223 229 177 227 289 154 99 142 152 125 194 219 235 250 267 196 175 184 22 243 116 26 4 16 102 150 138 126 115 104 93 85 80 75 69 63 58 49 40
227 246 237 236 221 237 201 154 179 130 125 181 207 39 258 206 221 212 213 222 209 229 225 239 196 155 93 28 354 164 153 135 125 112 93 79 79 75 75 71 65 57 48
259 256 259 262 254 246 246 163 185 181 171 196 255 231 211 242 184 161 215 206 192 219 208 213 216 202 161 127 36 133 154 145 144 129 103 79 35 69 100 88 77 65 65
288 279 279 267 263 251 252 231 178 201 172 175 208 251 269 334 291 209 212 209 202 220 208 203 201 195 164 141 87 51 140 140 146 148 140 98 37 324 179 120 100 76 67
330 319 304 287 270 262 260 260 214 198 216 202 195 161 219 224 264 275 226 194 210 218 211 213 202 194 177 178 194 138 139 148 158 169 155 93 85 274 113 118 107 91 80
354 355 333 309 292 278 265 258 258 218 236 227 206 232 214 215 228 230 250 181 204 197 201 199 204 212 184 184 195 165 220 213 176 168 162 149 185 231 209 167 133 107 84
355 349 341 329 304 283 276 270 258 241 233 237 238 222 220 226 243 230 257 175 229 113 194 203 201 200 203 209 187 197 206 226 183 181 181 184 191 244 307 164 143 118 102
351 350 344 337 329 301 288 271 262 257 239 237 235 238 241 229 233 223 234 237 211 197 193 200 195 200 198 203 209 182 205 217 228 191 190 185 172 264 248 174 141 127 123
354 353 351 349 342 334 315 275 260 250 248 249 230 231 237 236 232 219 238 246 230 238 211 193 176 199 194 193 187 184 220 195 225 196 176 146 145 292 141 134 140 129 132
351 351 351 352 350 346 337 331 279 262 251 240 238 231 235 229 240 236 218 231 233 237 246 238 193 149 191 197 191 205 215 164 215 192 165 149 171 173 124 146 153 144 142
351 352 349 347 350 350 346 340 331 313 270 254 245 236 240 227 229 228 226 219 224 224 238 244 121 144 179 188 181 208 194 182 193 185 169 165 182 187 183 167 167 150 143
351 349 348 347 346 347 346 345 337 330 332 312 269 260 236 239 236 219 216 219 223 226 226 230 189 166 185 193 195 188 210 199 212 189 186 185 189 197 199 187 178 170 158
340 344 347 348 343 343 335 339 342 334 326 322 334 315 271 249 244 232 231 227 218 224 226 225 227 163 160 180 194 188 196 206 221 194 196 197 201 202 202 196 183 175 165
330 333 333 335 337 336 334 335 338 344 338 323 314 319 330 327 289 252 242 234 227 218 216 215 219 168 171 168 190 189 196 188 198 200 210 209 200 207 209 205 199 189 182
325 324 324 325 326 327 333 331 336 341 339 334 326 303 295 292 306 318 327 275 242 233 216 208 211 195 185 156 195 192 197 187 204 177 181 211 196 199 206 213 200 192 195
321 320 321 320 321 319 322 329 336 338 337 330 329 331 314 295 290 286 282 286 301 306 264 221 214 214 201 190 190 197 190 178 199 197 190 203 184 199 197 196 203 199 201
317 317 316 314 311 317 318 323 326 330 321 314 312 319 322 322 308 272 277 284 289 262 258 296 269 230 200 188 177 194 194 206 192 163 182 205 183 202 195 198 203 206 201
316 316 314 308 307 313 314 316 319 322 308 297 298 298 302 305 308 305 277 265 257 262 279 265 235 253 275 307 88 160 175 208 54 90 181 195 178 201 211 213 224 220 206
312 309 307 309 313 309 310 311 312 304 299 292 286 283 280 282 287 294 294 285 261 251 245 261 254 256 239 233 212 185 187 179 210 179 196 184 176 185 203 205 206 224 221
307 308 307 306 306 306 306 305 306 298 296 292 294 270 276 283 283 280 279 268 274 269 228 219 233 248 257 240 221 199 191 204 212 199 176 194 156 145 193 201 200 208 211